WetterOnline ( http://www.wetteronline.de )

Wetter aktuell Petersdorf

Aktuelles Wetter: Augsburg/Mühlhausen (477m)

6-stündlich | Neueste Meldungen
Ortszeit Temperatur Wetter
Mi, 20.03. 7:00 -5.4° C wolkenlos
Mi, 20.03. 1:00 -3.7° C wolkenlos
Di, 19.03. 19:00 2.3° C wolkenlos
Di, 19.03. 13:00 6.7° C wolkig
Di, 19.03. 7:00 -2.1° C bewölkt
Di, 19.03. 1:00 -0.9° C wolkenlos
Mo, 18.03. 19:00 3.0° C leicht bewölkt
Mo, 18.03. 13:00 4.5° C bedeckt
Ortszeit Temperatur Wetter
Mi, 20.03. 11:30 6.8° C fast wolkenlos
Mi, 20.03. 11:20 6.8° C fast wolkenlos
Mi, 20.03. 11:10 7.4° C leicht bewölkt
Mi, 20.03. 11:00 6.7° C leicht bewölkt
Mi, 20.03. 10:50 6.7° C leicht bewölkt
Mi, 20.03. 10:40 6.8° C leicht bewölkt
Mi, 20.03. 10:30 5.6° C wolkenlos
Mi, 20.03. 10:00 4.2° C wolkenlos
Mi, 20.03. 9:30 3.2° C wolkenlos
Mi, 20.03. 9:00 2.0° C wolkenlos
Mi, 20.03. 8:30 -0.0° C wolkenlos
Ortszeit Relative Feuchte Sichtweite
Mi, 20.03. 7:00 93% 6 km
Mi, 20.03. 1:00 88% 30 km
Di, 19.03. 19:00 71% 40 km
Di, 19.03. 13:00 51% 40 km
Di, 19.03. 7:00 97% 4.7 km
Di, 19.03. 1:00 94% 15 km
Mo, 18.03. 19:00 78% 70 km
Mo, 18.03. 13:00 65% 65 km
Ortszeit Relative Feuchte Sichtweite
Mi, 20.03. 11:30 40% 40 km
Mi, 20.03. 11:20 40% -
Mi, 20.03. 11:10 42% -
Mi, 20.03. 11:00 42% 35 km
Mi, 20.03. 10:50 42% -
Mi, 20.03. 10:40 47% -
Mi, 20.03. 10:30 60% 25 km
Mi, 20.03. 10:00 63% 19 km
Mi, 20.03. 9:30 68% 18 km
Mi, 20.03. 9:00 72% 18 km
Mi, 20.03. 8:30 75% 13 km
Ortszeit Niederschlagsmenge Niederschlagsart
Mi, 20.03. 7:00 0.0 l/m2 in 12 Std. -
Mi, 20.03. 1:00 0.0 l/m2 in 6 Std. -
Di, 19.03. 19:00 0.0 l/m2 in 12 Std. -
Di, 19.03. 13:00 0.0 l/m2 in 6 Std. -
Di, 19.03. 7:00 0.0 l/m2 in 12 Std. -
Di, 19.03. 1:00 0.0 l/m2 in 6 Std. -
Mo, 18.03. 19:00 0.1 l/m2 in 12 Std. Schnee, Regen
Mo, 18.03. 13:00 0.1 l/m2 in 6 Std. Schnee, Regen
Ortszeit Niederschlagsmenge Niederschlagsart
Mi, 20.03. 11:30 0.0 l/m2 in 1 Std. -
Mi, 20.03. 11:20 keine Meldung -
Mi, 20.03. 11:10 keine Meldung -
Mi, 20.03. 11:00 0.0 l/m2 in 1 Std. -
Mi, 20.03. 10:50 keine Meldung -
Mi, 20.03. 10:40 keine Meldung -
Mi, 20.03. 10:30 0.0 l/m2 in 1 Std. -
Mi, 20.03. 10:00 0.0 l/m2 in 1 Std. -
Mi, 20.03. 9:30 0.0 l/m2 in 1 Std. -
Mi, 20.03. 9:00 0.0 l/m2 in 1 Std. -
Mi, 20.03. 8:30 0.0 l/m2 in 1 Std. -
Ortszeit Stärke Spitze Richtung
km/h Bft. km/h Grad Sektor
Mi, 20.03. 7:00 4 1 7 200° S
Mi, 20.03. 1:00 6 1 9 90° O
Di, 19.03. 19:00 6 1 28 60° NO
Di, 19.03. 13:00 9 2 20 350° N
Di, 19.03. 7:00 2 1 11 110° O
Di, 19.03. 1:00 7 2 18 190° S
Mo, 18.03. 19:00 15 3 39 250° W
Mo, 18.03. 13:00 13 3 43 320° NW
Ortszeit Stärke Spitze Richtung
km/h Bft. km/h Grad Sektor
Mi, 20.03. 11:30 11 2 22 100° O
Mi, 20.03. 11:20 11 2 - 100° O
Mi, 20.03. 11:10 11 2 - 70° O
Mi, 20.03. 11:00 9 2 26 80° O
Mi, 20.03. 10:50 9 2 - 80° O
Mi, 20.03. 10:40 4 1 - 290° W
Mi, 20.03. 10:30 4 1 7 280° W
Mi, 20.03. 10:00 4 1 7 320° NW
Mi, 20.03. 9:30 0 0 7 - -
Mi, 20.03. 9:00 2 1 4 250° W
Mi, 20.03. 8:30 4 1 4 340° N
Ortszeit Untergrenze Bedeckung Gattung
total tief tief mittel hoch
Mi, 20.03. 7:00 - 0/8 0/8 - - -
Mi, 20.03. 1:00 - 0/8 0/8 - - -
Di, 19.03. 19:00 - 0/8 0/8 - - -
Di, 19.03. 13:00 1470 m 6/8 6/8 - - -
Di, 19.03. 7:00 540 m 7/8 7/8 - - -
Di, 19.03. 1:00 - 0/8 0/8 - - -
Mo, 18.03. 19:00 2100 m 2/8 2/8 - - -
Mo, 18.03. 13:00 1050 m 8/8 8/8 - - -
Ortszeit Bedeckungsgrad in Achtel und Wolkenuntergrenze
Mi, 20.03. 11:30 1(1470m)
Mi, 20.03. 11:20 1(1470m)
Mi, 20.03. 11:10 3(1470m)
Mi, 20.03. 11:00 4(1410m)
Mi, 20.03. 10:50 4(1410m)
Mi, 20.03. 10:40 3(1380m)
Mi, 20.03. 10:30 1(1350m)
Mi, 20.03. 10:00 keine Wolken
Mi, 20.03. 9:30 keine Wolken
Mi, 20.03. 9:00 keine Wolken
Mi, 20.03. 8:30 keine Wolken
Ortszeit Luftdruck NN (hPa) Tendenz (hPa in 3 Std.)
Mi, 20.03. 7:00 1037 + 1,3
Mi, 20.03. 1:00 1035 + 1,1
Di, 19.03. 19:00 1031 + 1,6
Di, 19.03. 13:00 1028 + 0,2
Di, 19.03. 7:00 1028 + 1,3
Di, 19.03. 1:00 1026 + 0,9
Mo, 18.03. 19:00 1023 + 1,6
Mo, 18.03. 13:00 1021 + 1,2
Ortszeit Luftdruck NN (hPa) Tendenz (hPa in 3 Std.)
Mi, 20.03. 11:30 1035 + 0,5
Mi, 20.03. 11:20 1035 keine Meldung
Mi, 20.03. 11:10 1035 keine Meldung
Mi, 20.03. 11:00 1035 + 0,7
Mi, 20.03. 10:50 1035 keine Meldung
Mi, 20.03. 10:40 1035 keine Meldung
Mi, 20.03. 10:30 1035 + 0,9
Mi, 20.03. 10:00 1036 + 1,2
Mi, 20.03. 9:30 1036 + 1,5
Mi, 20.03. 9:00 1036 + 1,5
Mi, 20.03. 8:30 1036 + 1,6
Ortszeit Schneehöhe (cm)
Mi, 20.03. 7:00 2
Mi, 20.03. 1:00 0
Di, 19.03. 19:00 0
Di, 19.03. 13:00 0
Di, 19.03. 7:00 2
Di, 19.03. 1:00 0
Mo, 18.03. 19:00 0
Mo, 18.03. 13:00 0
Ortszeit Schneehöhe (cm)
Mi, 20.03. 11:30 0
Mi, 20.03. 11:20 0
Mi, 20.03. 11:10 0
Mi, 20.03. 11:00 0
Mi, 20.03. 10:50 0
Mi, 20.03. 10:40 0
Mi, 20.03. 10:30 0
Mi, 20.03. 10:00 -
Mi, 20.03. 9:30 -
Mi, 20.03. 9:00 2
Mi, 20.03. 8:30 2
Link zu dieser Seite / Seite empfehlen

Das Wetter in ...